Content
SEND FEEDBACK

Daily
Averages
Monthly
Summary
United States of America

JONESBORO, GEORGIA


Home > North America > United States > Georgia
Elevation: 93 feet     Latitude: 33 31N     Longitude: 084 21W

WEATHER
 
SELECT A DAY
Number of Records: 204,315;   Date Range: 1/1/95 - 11/27/14
 
SHARE

PRINT THIS DATA

[ ← Previous Day ]
WEATHER ALMANAC - FEBRUARY 13, 2013
[ Next Day → ]
[ °C ]   °F
Weather ElementAverageHighLow
Temperature46.1 °F53.1 °F (12:52 pm)39 °F (11:52 pm)
Dewpoint41.5 °F46.9 °F (10:52 am)32 °F (11:52 pm)
Humidity84.6 %100 % (7:12 am)66 % (1:52 pm)
Barometer29.83 in29.97 in (11:52 pm)29.74 in (5:49 am)
Wind Speed10.3 mph19.6 mph (6:52 pm)
Wind Gust25.3 mph (12:52 pm)
Weather ElementAverage
Visibility5.9 mi
Wind DirectionSSW (198.6 °)

Weather ElementTotal
Precipitation0.07 in
Heating Degree Days19 (Base 65)
Averaged from 36 records on February 13, 2013
WEATHER CONDITIONS BREAKOUT
WIND DIRECTION BREAKOUT
WEATHER BY HOUR - FEBRUARY 13, 2013
[ °C ]   °F
Local TimeTemperatureDewpointHumidityBarometerVisibilityWind DirectionWind SpeedGust SpeedPrecipitationEventsConditions
1:30 AM46.4 °F42.8 °F87 %29.82 in7.0 miVariable5.8 mph0.00 inLight Drizzle
1:52 AM46.0 °F43.0 °F89 %29.82 in7.0 miEast (100°)9.2 mph0.00 inLight Drizzle
2:38 AM44.6 °F42.8 °F93 %29.80 in3.0 miEast (100°)8.1 mph0.00 inLight Drizzle
2:52 AM45.0 °F43.0 °F93 %29.81 in2.0 miEast (90°)11.5 mph0.00 inLight Drizzle
3:52 AM44.1 °F43.0 °F96 %29.79 in2.0 miEast (80°)12.7 mph0.00 inLight Drizzle
4:52 AM44.1 °F43.0 °F96 %29.77 in2.0 miVariable3.5 mph16.1 mph0.01 inLight Drizzle
5:49 AM44.6 °F42.8 °F93 %29.74 in1.0 miEast (100°)9.2 mph0.01 inLight Drizzle
5:52 AM45.0 °F43.0 °F93 %29.75 in1.0 miEast (100°)8.1 mph0.01 inLight Drizzle
6:52 AM45.0 °F44.1 °F97 %29.78 in1.0 miESE (110°)8.1 mph0.00 inRainLight Rain
7:12 AM44.6 °F44.6 °F100 %29.74 in0.5 miESE (110°)6.9 mph0.01 inRainLight Rain
7:33 AM44.6 °F42.8 °F93 %29.78 in1.0 miESE (120°)4.6 mph0.01 inLight Drizzle
7:52 AM45.0 °F44.1 °F97 %29.76 in1.0 miSE (140°)10.4 mph0.02 inLight Drizzle
8:52 AM45.0 °F44.1 °F97 %29.76 in1.0 miSE (130°)4.6 mph0.00 inLight Drizzle
9:30 AM46.4 °F44.6 °F93 %29.80 in0.5 miWSW (250°)3.5 mph0.00 inLight Drizzle
9:52 AM46.9 °F45.0 °F93 %29.80 in0.5 miSW (230°)5.8 mph0.00 inLight Drizzle
10:03 AM46.4 °F46.4 °F100 %29.80 in1.0 miVariable5.8 mph0.00 inLight Drizzle
10:21 AM48.2 °F46.4 °F93 %29.79 in2.5 miVariable4.6 mph0.00 inOvercast
10:42 AM48.2 °F46.4 °F93 %29.82 in6.0 miWest (270°)11.5 mph16.1 mph0.00 inOvercast
10:52 AM48.9 °F46.9 °F93 %29.82 in6.0 miWest (270°)11.5 mph0.00 inOvercast
10:59 AM48.2 °F46.4 °F93 %29.80 in8.0 miWest (260°)10.4 mphMostly Cloudy
11:52 AM51.1 °F46.0 °F83 %29.81 in10.0 miWest (270°)12.7 mph19.6 mphOvercast
12:52 PM53.1 °F43.0 °F69 %29.80 in10.0 miWest (260°)16.1 mph25.3 mphOvercast
1:47 PM51.8 °F41.0 °F67 %29.80 in10.0 miWest (270°)16.1 mph25.3 mphOvercast
1:52 PM52.0 °F41.0 °F66 %29.80 in10.0 miWest (260°)17.3 mph25.3 mphOvercast
2:52 PM50.0 °F41.0 °F71 %29.79 in10.0 miWest (270°)13.8 mphOvercast
3:52 PM48.9 °F39.9 °F71 %29.82 in10.0 miWest (270°)10.4 mphOvercast
4:52 PM48.0 °F39.0 °F71 %29.85 in10.0 miWest (280°)13.8 mph24.2 mphOvercast
5:52 PM46.9 °F39.0 °F74 %29.87 in10.0 miWNW (290°)13.8 mph21.9 mphOvercast
6:52 PM46.9 °F37.9 °F71 %29.89 in10.0 miNW (310°)19.6 mph24.2 mphOvercast
7:28 PM44.6 °F35.6 °F71 %29.90 in10.0 miNW (320°)16.1 mph25.3 mphOvercast
7:52 PM45.0 °F36.0 °F71 %29.93 in10.0 miNW (320°)15.0 mphMostly Cloudy
8:52 PM43.0 °F35.1 °F74 %29.94 in10.0 miNW (310°)11.5 mphMostly Cloudy
9:18 PM42.8 °F35.6 °F76 %29.93 in10.0 miNW (310°)8.1 mphScattered Clouds
9:52 PM41.0 °F34.0 °F76 %29.95 in10.0 miNW (320°)9.2 mphPartly Cloudy
10:52 PM39.9 °F33.1 °F77 %29.96 in10.0 miNW (310°)9.2 mphPartly Cloudy
11:52 PM39.0 °F32.0 °F76 %29.97 in10.0 miNW (320°)11.5 mphPartly Cloudy
Hourly data recorded from KATL, located miles away from Jonesboro, Georgia







STORIES FROM OUR PARTNERS